THORAD AGENA D DEB, 4744

Orbit data source: Space-Track

THORAD AGENA D DEB, 4744 is space debris in SSO originally from a launch on Wed, 08 Apr 1970 UTC launched from the Air Force Western Test Range (AFWTR). Debris objects in space refer to the collection of defunct objects orbiting the Earth. Examples of debris include non-operational satellites, rocket bodies, and fragments generated from explosions, collisions, or faulty payload assembly.

Loading next visibility...
Identifier
4744, 1970-025CT
Orbit
SSO
Country
Flag of USUS
Related business
Manufacturer
Unknown
Mission
Spacecraft
Bus & Motor
Unknown
Mass
Unknown
Launch date (UTC)
1970-04-08 (56 years ago)
Launch vehicle
Unknown
Launch site
Air Force Western Test Range (AFWTR)
Object type
Payload
Rocket body
Debris
Shape & HBR
Unknown shape, 0.3 m
Radar Cross Section
Medium (>0.1 m² and <1 m²)

Expand to show TLE details & history
Last TLE update: 13 hours ago

TLE from 13 hours ago
0 THORAD AGENA D DEB
1 04744U 70025CT  25292.33552149  .00000122  00000-0  23862-3 0  9994
2 04744 100.1580 314.5017 0016721 113.2880 247.0018 13.56828499742603
Epoch: 2025-10-19T08:03Z
TLE epoch observation values (Epoch: 2025-10-19T08:03:09.056Z)
Latitude
-0.00007°
Longitude
165.66032°
Altitude
1,054.889 km
Speed
7.322 km/s
True Right ascension
20h 58m 00s
True Declination
0° 00' 00"
Sunlit
Object was in daylight at epoch
Visualization orbit readout
Latitude
Unknown
Longitude
Unknown
Altitude
Unknown
Speed
Unknown
Apparent Right ascension
Unknown
Apparent Declination
Unknown
Sunlit
N/A
Visualization observer readout
Local Sidereal Time
15:32:47
Azimuth
Unknown
Elevation
Unknown
Doppler factor
Unknown
Orbital elements
Apogee altitude
1,056.968 km
Perigee altitude
1,032.145 km
Semi-major axis
7,422.694 km
Eccentricity
0.00167
Inclination
100.158°
RAAN
314.5017°
Arg. of periapsis
113.288°
True anomaly
246.82557°
Mean anomaly
247.0018°
Eccentric anomaly
246.91367°
Mean motion
3.39391 °/min
Orbital period
106.07 mins
BSTAR
0.00023862
Loading maneuver chart data...
Computing Atmospheric mass density...

Documentation

Showing up to 5 results
|